This is the latest recevied weather packets stored in our database for station/object K4CRS-13. If no packets are shown the sender has not sent any weather packets the latest 10 day(s).
| Time | Temp. | Humidity | Pressure | Rain* | Wind** | Luminosity | Snow |
|---|---|---|---|---|---|---|---|
| 1787519414 | 30.56° C | 62% | 1050.7 hPa | 0 mm | - | 125 W/m² | - |
| 1787519110 | 30.56° C | 59% | 1050.8 hPa | 0 mm | - | 158 W/m² | - |
| 1787518803 | 30.56° C | 60% | 1050.7 hPa | 0 mm | - | 160 W/m² | - |
| 1787518500 | 31.11° C | 61% | 1050.4 hPa | 0 mm | - | 109 W/m² | - |
| 1787518200 | 31.11° C | 58% | 1050.8 hPa | 0 mm | - | 150 W/m² | - |
| 1787517896 | 31.67° C | 58% | 1050.7 hPa | 0 mm | - | 473 W/m² | - |
| 1787517591 | 31.67° C | 58% | 1050.8 hPa | 0 mm | - | 626 W/m² | - |
| 1787517289 | 31.11° C | 58% | 1050.8 hPa | 0 mm | - | 160 W/m² | - |
| 1787516987 | 31.67° C | 57% | 1050.9 hPa | 0 mm | - | 329 W/m² | - |
| 1787516682 | 31.67° C | 59% | 1050.7 hPa | 0 mm | - | 626 W/m² | - |
| 1787516378 | 31.67° C | 58% | 1050.7 hPa | 0 mm | - | 655 W/m² | - |
| 1787516072 | 31.11° C | 57% | 1050.9 hPa | 0 mm | - | 658 W/m² | - |
| 1787515768 | 31.67° C | 55% | 1051.1 hPa | 0 mm | - | 659 W/m² | - |
| 1787515464 | 31.67° C | 58% | 1051 hPa | 0 mm | - | 665 W/m² | - |
| 1787515163 | 31.67° C | 58% | 1051.2 hPa | 0 mm | - | 668 W/m² | - |
| 1787514861 | 31.67° C | 57% | 1051.2 hPa | 0 mm | - | 673 W/m² | - |
| 1787514561 | 31.67° C | 56% | 1051.2 hPa | 0 mm | - | 707 W/m² | - |
| 1787514258 | 31.67° C | 57% | 1051.2 hPa | 0 mm | - | 710 W/m² | - |
| 1787513956 | 31.67° C | 57% | 1051.1 hPa | 0 mm | - | 722 W/m² | - |
| 1787513652 | 31.11° C | 60% | 1051 hPa | 0 mm | - | 722 W/m² | - |
| 1787513348 | 31.11° C | 60% | 1051.4 hPa | 0 mm | - | 734 W/m² | - |
| 1787513044 | 31.11° C | 59% | 1051.3 hPa | 0 mm | - | 749 W/m² | - |
| 1787512740 | 30.56° C | 61% | 1051.5 hPa | 0 mm | - | 539 W/m² | - |
| 1787512436 | 30.56° C | 60% | 1051.6 hPa | 0 mm | - | 166 W/m² | - |
| 1787512131 | 31.11° C | 64% | 1051.7 hPa | 0 mm | - | 242 W/m² | - |
* Rain latest hour (hover to see other rain measurements)
** Current wind speed in m/s (hover to see current wind gust speed)